owner,sensor,date,latitude,longitude,vertical_datum,sea_water_practical_salinity,qcFlag 
COMPS,ioos:station:USF.COMPS:FHP:1,2013-11-11T19:24:00Z,28.1530,-82.8010,,15.192,1111122 
COMPS,ioos:station:USF.COMPS:FHP:1,2013-11-11T19:30:00Z,28.1530,-82.8010,,22.581,1111122 
COMPS,ioos:station:USF.COMPS:FHP:1,2013-11-11T19:36:00Z,28.1530,-82.8010,,24.082,1111122 
COMPS,ioos:station:USF.COMPS:FHP:1,2013-11-11T19:42:00Z,28.1530,-82.8010,,24.904,1111122 
COMPS,ioos:station:USF.COMPS:FHP:1,2013-11-11T19:48:00Z,28.1530,-82.8010,,24.915,1111122 
COMPS,ioos:station:USF.COMPS:FHP:1,2013-11-11T19:54:00Z,28.1530,-82.8010,,24.91,1111122 
COMPS,ioos:station:USF.COMPS:FHP:1,2013-11-11T20:00:00Z,28.1530,-82.8010,,24.934,1111122 
COMPS,ioos:station:USF.COMPS:FHP:1,2013-11-11T20:06:00Z,28.1530,-82.8010,,24.968,1111122 
COMPS,ioos:station:USF.COMPS:FHP:1,2013-11-11T20:12:00Z,28.1530,-82.8010,,24.957,1111122 
COMPS,ioos:station:USF.COMPS:FHP:1,2013-11-11T20:18:00Z,28.1530,-82.8010,,24.967,1111122 
COMPS,ioos:station:USF.COMPS:FHP:1,2013-11-11T20:24:00Z,28.1530,-82.8010,,25.006,1111122 
COMPS,ioos:station:USF.COMPS:FHP:1,2013-11-11T20:30:00Z,28.1530,-82.8010,,24.997,1111122 
COMPS,ioos:station:USF.COMPS:FHP:1,2013-11-11T20:36:00Z,28.1530,-82.8010,,24.992,1111122 
COMPS,ioos:station:USF.COMPS:FHP:1,2013-11-11T20:42:00Z,28.1530,-82.8010,,25.001,1111122 
COMPS,ioos:station:USF.COMPS:FHP:1,2013-11-11T20:48:00Z,28.1530,-82.8010,,25.005,1111122 
COMPS,ioos:station:USF.COMPS:FHP:1,2013-11-11T20:54:00Z,28.1530,-82.8010,,25.046,1111122 
COMPS,ioos:station:USF.COMPS:FHP:1,2013-11-11T21:00:00Z,28.1530,-82.8010,,25.074,1111122 
COMPS,ioos:station:USF.COMPS:FHP:1,2013-11-11T21:06:00Z,28.1530,-82.8010,,25.076,1111122 
COMPS,ioos:station:USF.COMPS:FHP:1,2013-11-11T21:12:00Z,28.1530,-82.8010,,25.082,1111122 
COMPS,ioos:station:USF.COMPS:FHP:1,2013-11-11T21:18:00Z,28.1530,-82.8010,,25.108,1111122 
COMPS,ioos:station:USF.COMPS:FHP:1,2013-11-11T21:24:00Z,28.1530,-82.8010,,25.238,1111122 
COMPS,ioos:station:USF.COMPS:FHP:1,2013-11-11T21:30:00Z,28.1530,-82.8010,,25.267,1111122 
COMPS,ioos:station:USF.COMPS:FHP:1,2013-11-11T21:36:00Z,28.1530,-82.8010,,25.329,1111122 
COMPS,ioos:station:USF.COMPS:FHP:1,2013-11-11T21:42:00Z,28.1530,-82.8010,,25.405,1111122 
COMPS,ioos:station:USF.COMPS:FHP:1,2013-11-11T21:48:00Z,28.1530,-82.8010,,25.458,1111122 
COMPS,ioos:station:USF.COMPS:FHP:1,2013-11-11T21:54:00Z,28.1530,-82.8010,,25.467,1111122 
COMPS,ioos:station:USF.COMPS:FHP:1,2013-11-11T22:00:00Z,28.1530,-82.8010,,25.48,1111122 
COMPS,ioos:station:USF.COMPS:FHP:1,2013-11-11T22:06:00Z,28.1530,-82.8010,,25.495,1111122 
COMPS,ioos:station:USF.COMPS:FHP:1,2013-11-11T22:12:00Z,28.1530,-82.8010,,25.463,1111122 
COMPS,ioos:station:USF.COMPS:FHP:1,2013-11-11T22:18:00Z,28.1530,-82.8010,,25.451,1111122 
COMPS,ioos:station:USF.COMPS:FHP:1,2013-11-11T22:24:00Z,28.1530,-82.8010,,25.418,1111122 
COMPS,ioos:station:USF.COMPS:FHP:1,2013-11-11T22:30:00Z,28.1530,-82.8010,,25.432,1111122 
COMPS,ioos:station:USF.COMPS:FHP:1,2013-11-11T22:36:00Z,28.1530,-82.8010,,25.437,1111122 
COMPS,ioos:station:USF.COMPS:FHP:1,2013-11-11T22:42:00Z,28.1530,-82.8010,,25.429,1111122 
COMPS,ioos:station:USF.COMPS:FHP:1,2013-11-11T22:48:00Z,28.1530,-82.8010,,25.314,1111122 
COMPS,ioos:station:USF.COMPS:FHP:1,2013-11-11T22:54:00Z,28.1530,-82.8010,,25.336,1111122 
COMPS,ioos:station:USF.COMPS:FHP:1,2013-11-11T23:00:00Z,28.1530,-82.8010,,25.349,1111122 
COMPS,ioos:station:USF.COMPS:FHP:1,2013-11-11T23:06:00Z,28.1530,-82.8010,,25.337,1111122 
COMPS,ioos:station:USF.COMPS:FHP:1,2013-11-11T23:12:00Z,28.1530,-82.8010,,25.339,1111122 
COMPS,ioos:station:USF.COMPS:FHP:1,2013-11-11T23:18:00Z,28.1530,-82.8010,,25.318,1111122 
COMPS,ioos:station:USF.COMPS:FHP:1,2013-11-11T23:24:00Z,28.1530,-82.8010,,25.194,1111122 
COMPS,ioos:station:USF.COMPS:FHP:1,2013-11-11T23:30:00Z,28.1530,-82.8010,,25.053,1111122 
COMPS,ioos:station:USF.COMPS:FHP:1,2013-11-11T23:36:00Z,28.1530,-82.8010,,25.012,1111122 
COMPS,ioos:station:USF.COMPS:FHP:1,2013-11-11T23:42:00Z,28.1530,-82.8010,,24.993,1111122 
COMPS,ioos:station:USF.COMPS:FHP:1,2013-11-11T23:48:00Z,28.1530,-82.8010,,24.986,1111122 
COMPS,ioos:station:USF.COMPS:FHP:1,2013-11-11T23:54:00Z,28.1530,-82.8010,,24.993,1111122 
COMPS,ioos:station:USF.COMPS:FHP:1,2013-11-12T00:00:00Z,28.1530,-82.8010,,25.016,1111122 
COMPS,ioos:station:USF.COMPS:FHP:1,2013-11-12T00:06:00Z,28.1530,-82.8010,,25.028,1111122 
COMPS,ioos:station:USF.COMPS:FHP:1,2013-11-12T00:12:00Z,28.1530,-82.8010,,25.023,1111122 
COMPS,ioos:station:USF.COMPS:FHP:1,2013-11-12T00:18:00Z,28.1530,-82.8010,,25.032,1111122 
COMPS,ioos:station:USF.COMPS:FHP:1,2013-11-12T00:24:00Z,28.1530,-82.8010,,25.031,1111122 
COMPS,ioos:station:USF.COMPS:FHP:1,2013-11-12T00:30:00Z,28.1530,-82.8010,,25.029,1111122 
COMPS,ioos:station:USF.COMPS:FHP:1,2013-11-12T00:36:00Z,28.1530,-82.8010,,25.019,1111122 
COMPS,ioos:station:USF.COMPS:FHP:1,2013-11-12T00:42:00Z,28.1530,-82.8010,,25.02,1111122 
COMPS,ioos:station:USF.COMPS:FHP:1,2013-11-12T00:48:00Z,28.1530,-82.8010,,25.014,1111122 
COMPS,ioos:station:USF.COMPS:FHP:1,2013-11-12T00:54:00Z,28.1530,-82.8010,,25.016,1111122 
COMPS,ioos:station:USF.COMPS:FHP:1,2013-11-12T01:00:00Z,28.1530,-82.8010,,25.014,1111122 
COMPS,ioos:station:USF.COMPS:FHP:1,2013-11-12T01:06:00Z,28.1530,-82.8010,,25.014,1111122 
COMPS,ioos:station:USF.COMPS:FHP:1,2013-11-12T01:12:00Z,28.1530,-82.8010,,25.012,1111122 
COMPS,ioos:station:USF.COMPS:FHP:1,2013-11-12T01:18:00Z,28.1530,-82.8010,,25.006,1111122 
COMPS,ioos:station:USF.COMPS:FHP:1,2013-11-12T01:24:00Z,28.1530,-82.8010,,25.004,1111122 
COMPS,ioos:station:USF.COMPS:FHP:1,2013-11-12T01:30:00Z,28.1530,-82.8010,,24.996,1111122 
COMPS,ioos:station:USF.COMPS:FHP:1,2013-11-12T01:36:00Z,28.1530,-82.8010,,24.986,1111122 
COMPS,ioos:station:USF.COMPS:FHP:1,2013-11-12T01:42:00Z,28.1530,-82.8010,,24.993,1111122 
COMPS,ioos:station:USF.COMPS:FHP:1,2013-11-12T01:48:00Z,28.1530,-82.8010,,24.995,1111122 
COMPS,ioos:station:USF.COMPS:FHP:1,2013-11-12T01:54:00Z,28.1530,-82.8010,,25.005,1111122 
COMPS,ioos:station:USF.COMPS:FHP:1,2013-11-12T02:00:00Z,28.1530,-82.8010,,25.007,1111122 
COMPS,ioos:station:USF.COMPS:FHP:1,2013-11-12T02:06:00Z,28.1530,-82.8010,,25.001,1111122 
COMPS,ioos:station:USF.COMPS:FHP:1,2013-11-12T02:12:00Z,28.1530,-82.8010,,25.009,1111122 
COMPS,ioos:station:USF.COMPS:FHP:1,2013-11-12T02:18:00Z,28.1530,-82.8010,,24.998,1111122 
COMPS,ioos:station:USF.COMPS:FHP:1,2013-11-12T02:24:00Z,28.1530,-82.8010,,24.985,1111122 
COMPS,ioos:station:USF.COMPS:FHP:1,2013-11-12T02:30:00Z,28.1530,-82.8010,,24.981,1111122 
COMPS,ioos:station:USF.COMPS:FHP:1,2013-11-12T02:36:00Z,28.1530,-82.8010,,24.979,1111122 
COMPS,ioos:station:USF.COMPS:FHP:1,2013-11-12T02:42:00Z,28.1530,-82.8010,,24.969,1111122 
COMPS,ioos:station:USF.COMPS:FHP:1,2013-11-12T02:48:00Z,28.1530,-82.8010,,24.961,1111122 
COMPS,ioos:station:USF.COMPS:FHP:1,2013-11-12T02:54:00Z,28.1530,-82.8010,,24.935,1111122 
COMPS,ioos:station:USF.COMPS:FHP:1,2013-11-12T03:00:00Z,28.1530,-82.8010,,24.91,1111122 
COMPS,ioos:station:USF.COMPS:FHP:1,2013-11-12T03:06:00Z,28.1530,-82.8010,,24.903,1111122 
COMPS,ioos:station:USF.COMPS:FHP:1,2013-11-12T03:12:00Z,28.1530,-82.8010,,24.876,1111122 
COMPS,ioos:station:USF.COMPS:FHP:1,2013-11-12T03:18:00Z,28.1530,-82.8010,,24.794,1111122 
COMPS,ioos:station:USF.COMPS:FHP:1,2013-11-12T03:24:00Z,28.1530,-82.8010,,24.749,1111122 
COMPS,ioos:station:USF.COMPS:FHP:1,2013-11-12T03:30:00Z,28.1530,-82.8010,,24.735,1111122 
COMPS,ioos:station:USF.COMPS:FHP:1,2013-11-12T03:36:00Z,28.1530,-82.8010,,24.574,1111122 
COMPS,ioos:station:USF.COMPS:FHP:1,2013-11-12T03:42:00Z,28.1530,-82.8010,,24.392,1111122 
COMPS,ioos:station:USF.COMPS:FHP:1,2013-11-12T03:48:00Z,28.1530,-82.8010,,24.305,1111122 
COMPS,ioos:station:USF.COMPS:FHP:1,2013-11-12T03:54:00Z,28.1530,-82.8010,,24.255,1111122 
COMPS,ioos:station:USF.COMPS:FHP:1,2013-11-12T04:00:00Z,28.1530,-82.8010,,24.263,1111122 
COMPS,ioos:station:USF.COMPS:FHP:1,2013-11-12T04:06:00Z,28.1530,-82.8010,,24.281,1111122 
COMPS,ioos:station:USF.COMPS:FHP:1,2013-11-12T04:12:00Z,28.1530,-82.8010,,24.271,1111122 
COMPS,ioos:station:USF.COMPS:FHP:1,2013-11-12T04:18:00Z,28.1530,-82.8010,,24.278,1111122 
COMPS,ioos:station:USF.COMPS:FHP:1,2013-11-12T04:24:00Z,28.1530,-82.8010,,24.28,1111122 
COMPS,ioos:station:USF.COMPS:FHP:1,2013-11-12T04:30:00Z,28.1530,-82.8010,,24.293,1111122 
COMPS,ioos:station:USF.COMPS:FHP:1,2013-11-12T04:36:00Z,28.1530,-82.8010,,24.302,1111122 
COMPS,ioos:station:USF.COMPS:FHP:1,2013-11-12T04:42:00Z,28.1530,-82.8010,,24.3,1111122 
COMPS,ioos:station:USF.COMPS:FHP:1,2013-11-12T04:48:00Z,28.1530,-82.8010,,24.305,1111122 
COMPS,ioos:station:USF.COMPS:FHP:1,2013-11-12T04:54:00Z,28.1530,-82.8010,,24.33,1111122 
COMPS,ioos:station:USF.COMPS:FHP:1,2013-11-12T05:00:00Z,28.1530,-82.8010,,24.339,1111122 
COMPS,ioos:station:USF.COMPS:FHP:1,2013-11-12T05:06:00Z,28.1530,-82.8010,,24.34,1111122 
COMPS,ioos:station:USF.COMPS:FHP:1,2013-11-12T05:12:00Z,28.1530,-82.8010,,24.342,1111122 
COMPS,ioos:station:USF.COMPS:FHP:1,2013-11-12T05:18:00Z,28.1530,-82.8010,,24.337,1111122 
COMPS,ioos:station:USF.COMPS:FHP:1,2013-11-12T05:24:00Z,28.1530,-82.8010,,24.331,1111122 
COMPS,ioos:station:USF.COMPS:FHP:1,2013-11-12T05:30:00Z,28.1530,-82.8010,,24.325,1111122 
COMPS,ioos:station:USF.COMPS:FHP:1,2013-11-12T05:36:00Z,28.1530,-82.8010,,24.326,1111122 
COMPS,ioos:station:USF.COMPS:FHP:1,2013-11-12T05:42:00Z,28.1530,-82.8010,,24.325,1111122 
COMPS,ioos:station:USF.COMPS:FHP:1,2013-11-12T05:48:00Z,28.1530,-82.8010,,24.318,1111122 
COMPS,ioos:station:USF.COMPS:FHP:1,2013-11-12T05:54:00Z,28.1530,-82.8010,,24.314,1111122 
COMPS,ioos:station:USF.COMPS:FHP:1,2013-11-12T06:00:00Z,28.1530,-82.8010,,24.263,1111122 
COMPS,ioos:station:USF.COMPS:FHP:1,2013-11-12T06:06:00Z,28.1530,-82.8010,,23.935,1111122 
COMPS,ioos:station:USF.COMPS:FHP:1,2013-11-12T06:12:00Z,28.1530,-82.8010,,23.095,1111122 
COMPS,ioos:station:USF.COMPS:FHP:1,2013-11-12T06:18:00Z,28.1530,-82.8010,,22.841,1111122 
COMPS,ioos:station:USF.COMPS:FHP:1,2013-11-12T06:24:00Z,28.1530,-82.8010,,21.931,1111122 
COMPS,ioos:station:USF.COMPS:FHP:1,2013-11-12T06:30:00Z,28.1530,-82.8010,,16.138,1111122 
COMPS,ioos:station:USF.COMPS:FHP:1,2013-11-12T06:42:00Z,28.1530,-82.8010,,3.198,1111122 
COMPS,ioos:station:USF.COMPS:FHP:1,2013-11-12T07:18:00Z,28.1530,-82.8010,,14.873,1111122 
COMPS,ioos:station:USF.COMPS:FHP:1,2013-11-12T07:24:00Z,28.1530,-82.8010,,22.458,1111122 
COMPS,ioos:station:USF.COMPS:FHP:1,2013-11-12T07:30:00Z,28.1530,-82.8010,,23.698,1111122 
COMPS,ioos:station:USF.COMPS:FHP:1,2013-11-12T07:36:00Z,28.1530,-82.8010,,24.844,1111122 
COMPS,ioos:station:USF.COMPS:FHP:1,2013-11-12T07:42:00Z,28.1530,-82.8010,,24.988,1111122 
COMPS,ioos:station:USF.COMPS:FHP:1,2013-11-12T07:48:00Z,28.1530,-82.8010,,25.036,1111122 
COMPS,ioos:station:USF.COMPS:FHP:1,2013-11-12T07:54:00Z,28.1530,-82.8010,,25.077,1111122 
COMPS,ioos:station:USF.COMPS:FHP:1,2013-11-12T08:00:00Z,28.1530,-82.8010,,25.124,1111122 
COMPS,ioos:station:USF.COMPS:FHP:1,2013-11-12T08:06:00Z,28.1530,-82.8010,,25.177,1111122 
COMPS,ioos:station:USF.COMPS:FHP:1,2013-11-12T08:12:00Z,28.1530,-82.8010,,25.207,1111122 
COMPS,ioos:station:USF.COMPS:FHP:1,2013-11-12T08:18:00Z,28.1530,-82.8010,,25.241,1111122 
COMPS,ioos:station:USF.COMPS:FHP:1,2013-11-12T08:24:00Z,28.1530,-82.8010,,25.257,1111122 
COMPS,ioos:station:USF.COMPS:FHP:1,2013-11-12T08:30:00Z,28.1530,-82.8010,,25.269,1111122 
COMPS,ioos:station:USF.COMPS:FHP:1,2013-11-12T08:36:00Z,28.1530,-82.8010,,25.285,1111122 
COMPS,ioos:station:USF.COMPS:FHP:1,2013-11-12T08:42:00Z,28.1530,-82.8010,,25.306,1111122 
COMPS,ioos:station:USF.COMPS:FHP:1,2013-11-12T08:48:00Z,28.1530,-82.8010,,25.33,1111122 
COMPS,ioos:station:USF.COMPS:FHP:1,2013-11-12T08:54:00Z,28.1530,-82.8010,,25.311,1111122 
COMPS,ioos:station:USF.COMPS:FHP:1,2013-11-12T09:00:00Z,28.1530,-82.8010,,25.344,1111122 
COMPS,ioos:station:USF.COMPS:FHP:1,2013-11-12T09:06:00Z,28.1530,-82.8010,,25.378,1111122 
COMPS,ioos:station:USF.COMPS:FHP:1,2013-11-12T09:12:00Z,28.1530,-82.8010,,25.395,1111122 
COMPS,ioos:station:USF.COMPS:FHP:1,2013-11-12T09:18:00Z,28.1530,-82.8010,,25.408,1111122 
COMPS,ioos:station:USF.COMPS:FHP:1,2013-11-12T09:24:00Z,28.1530,-82.8010,,25.391,1111122 
COMPS,ioos:station:USF.COMPS:FHP:1,2013-11-12T09:30:00Z,28.1530,-82.8010,,25.436,1111122 
COMPS,ioos:station:USF.COMPS:FHP:1,2013-11-12T09:36:00Z,28.1530,-82.8010,,25.486,1111122 
COMPS,ioos:station:USF.COMPS:FHP:1,2013-11-12T09:42:00Z,28.1530,-82.8010,,25.497,1111122 
COMPS,ioos:station:USF.COMPS:FHP:1,2013-11-12T09:48:00Z,28.1530,-82.8010,,25.512,1111122 
COMPS,ioos:station:USF.COMPS:FHP:1,2013-11-12T09:54:00Z,28.1530,-82.8010,,25.529,1111122 
COMPS,ioos:station:USF.COMPS:FHP:1,2013-11-12T10:00:00Z,28.1530,-82.8010,,25.521,1111122 
COMPS,ioos:station:USF.COMPS:FHP:1,2013-11-12T10:06:00Z,28.1530,-82.8010,,25.546,1111122 
COMPS,ioos:station:USF.COMPS:FHP:1,2013-11-12T10:12:00Z,28.1530,-82.8010,,25.538,1111122 
COMPS,ioos:station:USF.COMPS:FHP:1,2013-11-12T10:18:00Z,28.1530,-82.8010,,25.552,1111122 
COMPS,ioos:station:USF.COMPS:FHP:1,2013-11-12T10:24:00Z,28.1530,-82.8010,,25.57,1111122 
COMPS,ioos:station:USF.COMPS:FHP:1,2013-11-12T10:30:00Z,28.1530,-82.8010,,25.58,1111122 
COMPS,ioos:station:USF.COMPS:FHP:1,2013-11-12T10:36:00Z,28.1530,-82.8010,,25.58,1111122 
COMPS,ioos:station:USF.COMPS:FHP:1,2013-11-12T10:42:00Z,28.1530,-82.8010,,25.561,1111122 
COMPS,ioos:station:USF.COMPS:FHP:1,2013-11-12T10:48:00Z,28.1530,-82.8010,,25.587,1111122 
COMPS,ioos:station:USF.COMPS:FHP:1,2013-11-12T10:54:00Z,28.1530,-82.8010,,25.606,1111122 
COMPS,ioos:station:USF.COMPS:FHP:1,2013-11-12T11:00:00Z,28.1530,-82.8010,,25.581,1111122 
COMPS,ioos:station:USF.COMPS:FHP:1,2013-11-12T11:06:00Z,28.1530,-82.8010,,25.599,1111122 
COMPS,ioos:station:USF.COMPS:FHP:1,2013-11-12T11:12:00Z,28.1530,-82.8010,,25.646,1111122 
COMPS,ioos:station:USF.COMPS:FHP:1,2013-11-12T11:18:00Z,28.1530,-82.8010,,25.635,1111122 
COMPS,ioos:station:USF.COMPS:FHP:1,2013-11-12T11:24:00Z,28.1530,-82.8010,,25.625,1111122 
COMPS,ioos:station:USF.COMPS:FHP:1,2013-11-12T11:30:00Z,28.1530,-82.8010,,25.721,1111122 
COMPS,ioos:station:USF.COMPS:FHP:1,2013-11-12T11:36:00Z,28.1530,-82.8010,,25.845,1111122 
COMPS,ioos:station:USF.COMPS:FHP:1,2013-11-12T11:42:00Z,28.1530,-82.8010,,25.915,1111122 
COMPS,ioos:station:USF.COMPS:FHP:1,2013-11-12T11:48:00Z,28.1530,-82.8010,,26.033,1111122 
COMPS,ioos:station:USF.COMPS:FHP:1,2013-11-12T11:54:00Z,28.1530,-82.8010,,26.086,1111122 
COMPS,ioos:station:USF.COMPS:FHP:1,2013-11-12T12:00:00Z,28.1530,-82.8010,,26.043,1111122 
COMPS,ioos:station:USF.COMPS:FHP:1,2013-11-12T12:06:00Z,28.1530,-82.8010,,25.816,1111122 
COMPS,ioos:station:USF.COMPS:FHP:1,2013-11-12T12:12:00Z,28.1530,-82.8010,,25.762,1111122 
COMPS,ioos:station:USF.COMPS:FHP:1,2013-11-12T12:18:00Z,28.1530,-82.8010,,25.716,1111122 
COMPS,ioos:station:USF.COMPS:FHP:1,2013-11-12T12:24:00Z,28.1530,-82.8010,,25.658,1111122 
COMPS,ioos:station:USF.COMPS:FHP:1,2013-11-12T12:30:00Z,28.1530,-82.8010,,25.676,1111122 
COMPS,ioos:station:USF.COMPS:FHP:1,2013-11-12T12:36:00Z,28.1530,-82.8010,,25.692,1111122 
COMPS,ioos:station:USF.COMPS:FHP:1,2013-11-12T12:42:00Z,28.1530,-82.8010,,25.832,1111122 
COMPS,ioos:station:USF.COMPS:FHP:1,2013-11-12T12:48:00Z,28.1530,-82.8010,,25.665,1111122 
COMPS,ioos:station:USF.COMPS:FHP:1,2013-11-12T12:54:00Z,28.1530,-82.8010,,25.753,1111122 
COMPS,ioos:station:USF.COMPS:FHP:1,2013-11-12T13:00:00Z,28.1530,-82.8010,,25.745,1111122 
COMPS,ioos:station:USF.COMPS:FHP:1,2013-11-12T13:06:00Z,28.1530,-82.8010,,25.719,1111122 
COMPS,ioos:station:USF.COMPS:FHP:1,2013-11-12T13:12:00Z,28.1530,-82.8010,,25.729,1111122 
COMPS,ioos:station:USF.COMPS:FHP:1,2013-11-12T13:18:00Z,28.1530,-82.8010,,25.78,1111122 
COMPS,ioos:station:USF.COMPS:FHP:1,2013-11-12T13:24:00Z,28.1530,-82.8010,,25.822,1111122 
COMPS,ioos:station:USF.COMPS:FHP:1,2013-11-12T13:30:00Z,28.1530,-82.8010,,25.845,1111122 
COMPS,ioos:station:USF.COMPS:FHP:1,2013-11-12T13:36:00Z,28.1530,-82.8010,,25.751,1111122 
COMPS,ioos:station:USF.COMPS:FHP:1,2013-11-12T13:42:00Z,28.1530,-82.8010,,25.649,1111122 
COMPS,ioos:station:USF.COMPS:FHP:1,2013-11-12T13:48:00Z,28.1530,-82.8010,,25.577,1111122 
COMPS,ioos:station:USF.COMPS:FHP:1,2013-11-12T13:54:00Z,28.1530,-82.8010,,25.55,1111122 
COMPS,ioos:station:USF.COMPS:FHP:1,2013-11-12T14:00:00Z,28.1530,-82.8010,,25.55,1111122 
COMPS,ioos:station:USF.COMPS:FHP:1,2013-11-12T14:06:00Z,28.1530,-82.8010,,25.478,1111122 
COMPS,ioos:station:USF.COMPS:FHP:1,2013-11-12T14:12:00Z,28.1530,-82.8010,,25.509,1111122 
COMPS,ioos:station:USF.COMPS:FHP:1,2013-11-12T14:18:00Z,28.1530,-82.8010,,25.482,1111122 
COMPS,ioos:station:USF.COMPS:FHP:1,2013-11-12T14:24:00Z,28.1530,-82.8010,,25.414,1111122 
COMPS,ioos:station:USF.COMPS:FHP:1,2013-11-12T14:30:00Z,28.1530,-82.8010,,25.496,1111122 
COMPS,ioos:station:USF.COMPS:FHP:1,2013-11-12T14:36:00Z,28.1530,-82.8010,,25.568,1111122 
COMPS,ioos:station:USF.COMPS:FHP:1,2013-11-12T14:42:00Z,28.1530,-82.8010,,25.403,1111122 
COMPS,ioos:station:USF.COMPS:FHP:1,2013-11-12T14:48:00Z,28.1530,-82.8010,,25.246,1111122 
COMPS,ioos:station:USF.COMPS:FHP:1,2013-11-12T14:54:00Z,28.1530,-82.8010,,25.128,1111122 
COMPS,ioos:station:USF.COMPS:FHP:1,2013-11-12T15:00:00Z,28.1530,-82.8010,,25.098,1111122 
COMPS,ioos:station:USF.COMPS:FHP:1,2013-11-12T15:06:00Z,28.1530,-82.8010,,25.074,1111122 
COMPS,ioos:station:USF.COMPS:FHP:1,2013-11-12T15:12:00Z,28.1530,-82.8010,,25.024,1111122 
COMPS,ioos:station:USF.COMPS:FHP:1,2013-11-12T15:18:00Z,28.1530,-82.8010,,24.998,1111122 
COMPS,ioos:station:USF.COMPS:FHP:1,2013-11-12T15:24:00Z,28.1530,-82.8010,,24.969,1111122 
COMPS,ioos:station:USF.COMPS:FHP:1,2013-11-12T15:30:00Z,28.1530,-82.8010,,24.858,1111122 
COMPS,ioos:station:USF.COMPS:FHP:1,2013-11-12T15:36:00Z,28.1530,-82.8010,,24.773,1111122 
COMPS,ioos:station:USF.COMPS:FHP:1,2013-11-12T15:42:00Z,28.1530,-82.8010,,24.719,1111122 
COMPS,ioos:station:USF.COMPS:FHP:1,2013-11-12T15:48:00Z,28.1530,-82.8010,,24.648,1111122 
COMPS,ioos:station:USF.COMPS:FHP:1,2013-11-12T15:54:00Z,28.1530,-82.8010,,24.611,1111122 
COMPS,ioos:station:USF.COMPS:FHP:1,2013-11-12T16:00:00Z,28.1530,-82.8010,,24.568,1111122 
COMPS,ioos:station:USF.COMPS:FHP:1,2013-11-12T16:06:00Z,28.1530,-82.8010,,24.458,1111122 
COMPS,ioos:station:USF.COMPS:FHP:1,2013-11-12T16:12:00Z,28.1530,-82.8010,,24.402,1111122 
COMPS,ioos:station:USF.COMPS:FHP:1,2013-11-12T16:18:00Z,28.1530,-82.8010,,24.404,1111122 
COMPS,ioos:station:USF.COMPS:FHP:1,2013-11-12T16:24:00Z,28.1530,-82.8010,,24.498,1111122 
COMPS,ioos:station:USF.COMPS:FHP:1,2013-11-12T16:30:00Z,28.1530,-82.8010,,24.625,1111122 
COMPS,ioos:station:USF.COMPS:FHP:1,2013-11-12T16:36:00Z,28.1530,-82.8010,,24.674,1111122 
COMPS,ioos:station:USF.COMPS:FHP:1,2013-11-12T16:42:00Z,28.1530,-82.8010,,24.689,1111122 
COMPS,ioos:station:USF.COMPS:FHP:1,2013-11-12T16:48:00Z,28.1530,-82.8010,,24.672,1111122 
COMPS,ioos:station:USF.COMPS:FHP:1,2013-11-12T16:54:00Z,28.1530,-82.8010,,24.707,1111122 
COMPS,ioos:station:USF.COMPS:FHP:1,2013-11-12T17:00:00Z,28.1530,-82.8010,,24.8,1111122 
COMPS,ioos:station:USF.COMPS:FHP:1,2013-11-12T17:06:00Z,28.1530,-82.8010,,24.858,1111122 
COMPS,ioos:station:USF.COMPS:FHP:1,2013-11-12T17:12:00Z,28.1530,-82.8010,,24.955,1111122 
COMPS,ioos:station:USF.COMPS:FHP:1,2013-11-12T17:18:00Z,28.1530,-82.8010,,24.989,1111122 
COMPS,ioos:station:USF.COMPS:FHP:1,2013-11-12T17:24:00Z,28.1530,-82.8010,,24.962,1111122 
COMPS,ioos:station:USF.COMPS:FHP:1,2013-11-12T17:30:00Z,28.1530,-82.8010,,24.918,1111122 
COMPS,ioos:station:USF.COMPS:FHP:1,2013-11-12T17:36:00Z,28.1530,-82.8010,,24.904,1111122 
COMPS,ioos:station:USF.COMPS:FHP:1,2013-11-12T17:42:00Z,28.1530,-82.8010,,24.895,1111122 
COMPS,ioos:station:USF.COMPS:FHP:1,2013-11-12T17:48:00Z,28.1530,-82.8010,,24.887,1111122 
COMPS,ioos:station:USF.COMPS:FHP:1,2013-11-12T17:54:00Z,28.1530,-82.8010,,24.887,1111122 
COMPS,ioos:station:USF.COMPS:FHP:1,2013-11-12T18:00:00Z,28.1530,-82.8010,,24.906,1111122 
COMPS,ioos:station:USF.COMPS:FHP:1,2013-11-12T18:06:00Z,28.1530,-82.8010,,24.935,1111122 
COMPS,ioos:station:USF.COMPS:FHP:1,2013-11-12T18:12:00Z,28.1530,-82.8010,,24.963,1111122 
COMPS,ioos:station:USF.COMPS:FHP:1,2013-11-12T18:18:00Z,28.1530,-82.8010,,24.954,1111122 
COMPS,ioos:station:USF.COMPS:FHP:1,2013-11-12T18:24:00Z,28.1530,-82.8010,,24.86,1111122 
COMPS,ioos:station:USF.COMPS:FHP:1,2013-11-12T18:30:00Z,28.1530,-82.8010,,24.228,1111122 
COMPS,ioos:station:USF.COMPS:FHP:1,2013-11-12T18:36:00Z,28.1530,-82.8010,,23.291,1111122 
COMPS,ioos:station:USF.COMPS:FHP:1,2013-11-12T18:42:00Z,28.1530,-82.8010,,22.811,1111122 
COMPS,ioos:station:USF.COMPS:FHP:1,2013-11-12T18:48:00Z,28.1530,-82.8010,,21.311,1111122 
COMPS,ioos:station:USF.COMPS:FHP:1,2013-11-12T18:54:00Z,28.1530,-82.8010,,20.034,1111122 
COMPS,ioos:station:USF.COMPS:FHP:1,2013-11-18T05:00:00Z,28.1530,-82.8010,,27.107,1111122 
COMPS,ioos:station:USF.COMPS:FHP:1,2013-11-18T05:06:00Z,28.1530,-82.8010,,27.125,1111122 
COMPS,ioos:station:USF.COMPS:FHP:1,2013-11-18T05:12:00Z,28.1530,-82.8010,,27.094,1111122 
COMPS,ioos:station:USF.COMPS:FHP:1,2013-11-18T05:18:00Z,28.1530,-82.8010,,26.955,1111122 
COMPS,ioos:station:USF.COMPS:FHP:1,2013-11-18T05:24:00Z,28.1530,-82.8010,,27.004,1111122 
COMPS,ioos:station:USF.COMPS:FHP:1,2013-11-18T05:30:00Z,28.1530,-82.8010,,26.872,1111122 
COMPS,ioos:station:USF.COMPS:FHP:1,2013-11-18T05:36:00Z,28.1530,-82.8010,,26.786,1111122 
COMPS,ioos:station:USF.COMPS:FHP:1,2013-11-18T05:42:00Z,28.1530,-82.8010,,26.765,1111122 
COMPS,ioos:station:USF.COMPS:FHP:1,2013-11-18T05:48:00Z,28.1530,-82.8010,,26.766,1111122 
COMPS,ioos:station:USF.COMPS:FHP:1,2013-11-18T05:54:00Z,28.1530,-82.8010,,26.427,1111122 
COMPS,ioos:station:USF.COMPS:FHP:1,2013-11-18T06:00:00Z,28.1530,-82.8010,,26.223,1111122 
COMPS,ioos:station:USF.COMPS:FHP:1,2013-11-18T06:06:00Z,28.1530,-82.8010,,26.164,1111122 
COMPS,ioos:station:USF.COMPS:FHP:1,2013-11-18T06:12:00Z,28.1530,-82.8010,,26.143,1111122 
COMPS,ioos:station:USF.COMPS:FHP:1,2013-11-18T06:18:00Z,28.1530,-82.8010,,26.138,1111122 
COMPS,ioos:station:USF.COMPS:FHP:1,2013-11-18T06:24:00Z,28.1530,-82.8010,,26.087,1111122 
COMPS,ioos:station:USF.COMPS:FHP:1,2013-11-18T06:30:00Z,28.1530,-82.8010,,26.065,1111122 
COMPS,ioos:station:USF.COMPS:FHP:1,2013-11-18T06:36:00Z,28.1530,-82.8010,,26.036,1111122 
COMPS,ioos:station:USF.COMPS:FHP:1,2013-11-18T06:42:00Z,28.1530,-82.8010,,26.011,1111122 
COMPS,ioos:station:USF.COMPS:FHP:1,2013-11-18T06:48:00Z,28.1530,-82.8010,,26.004,1111122 
COMPS,ioos:station:USF.COMPS:FHP:1,2013-11-18T06:54:00Z,28.1530,-82.8010,,25.99,1111122 
COMPS,ioos:station:USF.COMPS:FHP:1,2013-11-18T07:00:00Z,28.1530,-82.8010,,25.98,1111122 
COMPS,ioos:station:USF.COMPS:FHP:1,2013-11-18T07:06:00Z,28.1530,-82.8010,,25.975,1111122 
COMPS,ioos:station:USF.COMPS:FHP:1,2013-11-18T07:12:00Z,28.1530,-82.8010,,25.98,1111122 
COMPS,ioos:station:USF.COMPS:FHP:1,2013-11-18T07:18:00Z,28.1530,-82.8010,,26.01,1111122 
COMPS,ioos:station:USF.COMPS:FHP:1,2013-11-18T07:24:00Z,28.1530,-82.8010,,25.993,1111122 
COMPS,ioos:station:USF.COMPS:FHP:1,2013-11-18T07:30:00Z,28.1530,-82.8010,,25.958,1111122 
COMPS,ioos:station:USF.COMPS:FHP:1,2013-11-18T07:36:00Z,28.1530,-82.8010,,25.975,1111122 
COMPS,ioos:station:USF.COMPS:FHP:1,2013-11-18T07:42:00Z,28.1530,-82.8010,,26.003,1111122 
COMPS,ioos:station:USF.COMPS:FHP:1,2013-11-18T07:48:00Z,28.1530,-82.8010,,26.013,1111122 
COMPS,ioos:station:USF.COMPS:FHP:1,2013-11-18T07:54:00Z,28.1530,-82.8010,,26.004,1111122 
COMPS,ioos:station:USF.COMPS:FHP:1,2013-11-18T08:00:00Z,28.1530,-82.8010,,26.017,1111122 
COMPS,ioos:station:USF.COMPS:FHP:1,2013-11-18T08:06:00Z,28.1530,-82.8010,,26.046,1111122 
COMPS,ioos:station:USF.COMPS:FHP:1,2013-11-18T08:12:00Z,28.1530,-82.8010,,26.086,1111122 
COMPS,ioos:station:USF.COMPS:FHP:1,2013-11-18T08:18:00Z,28.1530,-82.8010,,26.135,1111122 
COMPS,ioos:station:USF.COMPS:FHP:1,2013-11-18T08:24:00Z,28.1530,-82.8010,,26.167,1111122 